sat.trackr.live / text

‹ back to catalog

STARLINK-30594

NORAD 58097 · 2023-161A

PAYLOAD ACTIVE UNKNOWN

§ Identity

Operator
Country
US
Launch date
2023-10-21
Launch site
AFWTR
Launch vehicle
Mass (kg)
RCS (m²)

Purposes: comms

External: N2YO · Heavens-Above · Gunter

§ Orbital elements

Epoch: 2026-09-20T12:32:02.257440Z

Period
93.85 min
Inclination
53.1596°
Eccentricity
0.0001399
Mean motion
15.34396320 rev/d
Perigee alt
461.8 km
Apogee alt
463.7 km
Semi-major
6,840.9 km
B*
5.8781e-5
RAAN
337.5597°
Arg perigee
96.6524°
Mean anomaly
263.4638°
Rev number
16,429

§ Raw data

STARLINK-305941 58097U 23161A   26263.52224835  .00001610  00000+0  58781-4 0  99922 58097  53.1596 337.5597 0001399  96.6524 263.4638 15.34396320164293

JSON: /api/v1/satellites/58097 · /tle

For live sub-satellite position, see the globe view (requires WebGL).

§ Visibility from observer

Set your observer location to see the next 7 days of passes ≥ 10°. The values pass through the URL so the page stays shareable.

No JS? Fill the form by hand. The geolocation button needs JavaScript.